Location: ???????
(38.3360°N, 23.6977°E)
Time: 21:21:35
(UTC+00:00)

Cosmos 1862 - Pass Details

Date: 17 November 2025
Orbit: 473 x 485 km, 82.5° (Epoch: 11 December)

Event Time Altitude Azimuth Distance (km) Brightness Sun altitude
Rises 16:44:07 0° 354° (N) 2,538 6.7 -18.2°
Reaches altitude 10° 16:46:13 10° 357° (N) 1,657 5.7 -18.6°
Maximum altitude 16:49:51 74° 83° (E) 503 2.9 -19.3°
Drops below altitude 10° 16:53:27 10° 168° (SSE) 1,653 5.7 -20.0°
Sets 16:55:33 0° 170° (S) 2,530 6.7 -20.4°
